• In Deutschland
  • Länderverzeichnis
  • Für 7 Tage
  • Wassertemperatur
  • Satellitenkarten
  • Wetterkarte
  • Widgets
  • user-avatar
    Anmelden

    Stündliche Wetter Kapan

    Heute, 21 Oktober, Samstag

    Zeit Temperatur Niederschläge Wind Luftdruck Luftfeuchtigkeit
    00:00 +13°C° 0 mm 1 m/S 686 mmHg 47%
    01:00 +13°C° 0 mm 1 m/S 686 mmHg 46%
    02:00 +12°C° 0 mm 1 m/S 686 mmHg 46%
    03:00 +12°C° 0 mm 1 m/S 685 mmHg 43%
    04:00 +12°C° 0 mm 1 m/S 685 mmHg 43%
    05:00 +12°C° 0 mm 1 m/S 685 mmHg 43%
    06:00 +11°C° 0 mm 1 m/S 685 mmHg 42%
    07:00 +13°C° 0 mm 1 m/S 685 mmHg 38%
    08:00 +15°C° 0 mm 1 m/S 686 mmHg 34%
    09:00 +18°C° 0 mm 1 m/S 686 mmHg 30%
    10:00 +19°C° 0 mm 1 m/S 686 mmHg 29%
    11:00 +19°C° 0 mm 2 m/S 686 mmHg 27%
    12:00 +20°C° 0 mm 2 m/S 686 mmHg 25%
    13:00 +20°C° 0 mm 2 m/S 685 mmHg 26%
    14:00 +20°C° 0 mm 2 m/S 685 mmHg 27%
    15:00 +20°C° 0 mm 2 m/S 684 mmHg 28%
    16:00 +18°C° 0 mm 2 m/S 684 mmHg 36%
    17:00 +16°C° 0 mm 1 m/S 684 mmHg 43%
    18:00 +15°C° 0 mm 1 m/S 683 mmHg 51%
    19:00 +14°C° 0 mm 1 m/S 683 mmHg 52%
    20:00 +13°C° 0 mm 0 m/S 683 mmHg 54%
    21:00 +12°C° 0 mm 0 m/S 683 mmHg 55%
    22:00 +13°C° 0 mm 1 m/S 683 mmHg 52%
    23:00 +13°C° 0 mm 1 m/S 683 mmHg 49%

    Morgen, 22 Oktober, Sonntag

    Zeit Temperatur Niederschläge Wind Luftdruck Luftfeuchtigkeit
    00:00 +13°C° 0 mm 1 m/S 683 mmHg 46%
    01:00 +12°C° 0 mm 1 m/S 683 mmHg 43%
    02:00 +12°C° 0 mm 1 m/S 683 mmHg 40%
    03:00 +12°C° 0 mm 1 m/S 683 mmHg 37%
    04:00 +12°C° 0 mm 1 m/S 683 mmHg 36%
    05:00 +12°C° 0 mm 2 m/S 683 mmHg 35%
    06:00 +10°C° 0 mm 2 m/S 682 mmHg 35%
    07:00 +13°C° 0 mm 2 m/S 683 mmHg 32%
    08:00 +15°C° 0 mm 2 m/S 683 mmHg 29%
    09:00 +18°C° 0 mm 2 m/S 684 mmHg 26%
    10:00 +19°C° 0 mm 2 m/S 684 mmHg 25%
    11:00 +20°C° 0 mm 3 m/S 683 mmHg 23%
    12:00 +21°C° 0 mm 3 m/S 683 mmHg 21%
    13:00 +21°C° 0 mm 3 m/S 683 mmHg 21%
    14:00 +21°C° 0 mm 3 m/S 682 mmHg 22%
    15:00 +21°C° 0 mm 3 m/S 682 mmHg 22%
    16:00 +19°C° 0 mm 2 m/S 682 mmHg 28%
    17:00 +17°C° 0 mm 2 m/S 681 mmHg 34%
    18:00 +15°C° 0 mm 1 m/S 681 mmHg 40%
    19:00 +15°C° 0 mm 1 m/S 681 mmHg 40%
    20:00 +15°C° 0 mm 1 m/S 681 mmHg 39%
    21:00 +14°C° 0 mm 2 m/S 681 mmHg 39%
    22:00 +14°C° 0 mm 2 m/S 681 mmHg 38%
    23:00 +14°C° 0 mm 2 m/S 681 mmHg 38%

    übermorgen, 23 Oktober, Montag

    Zeit Temperatur Niederschläge Wind Luftdruck Luftfeuchtigkeit
    00:00 +13°C° 0 mm 2 m/S 681 mmHg 37%
    01:00 +13°C° 0 mm 2 m/S 681 mmHg 38%
    02:00 +13°C° 0 mm 2 m/S 682 mmHg 38%
    03:00 +13°C° 0 mm 2 m/S 682 mmHg 39%
    04:00 +12°C° 0 mm 2 m/S 682 mmHg 39%
    05:00 +12°C° 0 mm 2 m/S 682 mmHg 40%
    06:00 +12°C° 0 mm 2 m/S 682 mmHg 40%
    07:00 +14°C° 0 mm 2 m/S 683 mmHg 36%
    08:00 +16°C° 0 mm 2 m/S 684 mmHg 32%
    09:00 +18°C° 0 mm 2 m/S 685 mmHg 27%
    10:00 +19°C° 0 mm 2 m/S 685 mmHg 26%
    11:00 +20°C° 0 mm 2 m/S 685 mmHg 24%
    12:00 +21°C° 0 mm 3 m/S 685 mmHg 23%
    13:00 +20°C° 0 mm 3 m/S 685 mmHg 24%
    14:00 +20°C° 0 mm 3 m/S 685 mmHg 25%
    15:00 +20°C° 0 mm 3 m/S 684 mmHg 25%
    16:00 +18°C° 0 mm 2 m/S 684 mmHg 32%
    17:00 +16°C° 0 mm 2 m/S 684 mmHg 39%
    18:00 +14°C° 0 mm 1 m/S 684 mmHg 46%
    19:00 +14°C° 0 mm 1 m/S 684 mmHg 49%
    20:00 +13°C° 0 mm 1 m/S 684 mmHg 52%
    21:00 +13°C° 0 mm 1 m/S 685 mmHg 54%
    22:00 +13°C° 0 mm 1 m/S 685 mmHg 56%
    23:00 +12°C° 0 mm 1 m/S 684 mmHg 57%

    24 Oktober, Dienstag

    Zeit Temperatur Niederschläge Wind Luftdruck Luftfeuchtigkeit
    00:00 +12°C° 0 mm 1 m/S 684 mmHg 58%
    01:00 +12°C° 0 mm 1 m/S 684 mmHg 60%
    02:00 +12°C° 0 mm 1 m/S 684 mmHg 61%
    03:00 +11°C° 0 mm 1 m/S 684 mmHg 63%
    04:00 +11°C° 0 mm 1 m/S 684 mmHg 63%
    05:00 +11°C° 0 mm 1 m/S 684 mmHg 64%
    06:00 +11°C° 0 mm 1 m/S 684 mmHg 64%
    07:00 +13°C° 0 mm 1 m/S 685 mmHg 59%
    08:00 +14°C° 0 mm 1 m/S 685 mmHg 53%
    09:00 +16°C° 0 mm 2 m/S 686 mmHg 47%
    10:00 +17°C° 0 mm 2 m/S 686 mmHg 44%
    11:00 +18°C° 0 mm 2 m/S 686 mmHg 40%
    12:00 +20°C° 0 mm 2 m/S 686 mmHg 36%
    13:00 +20°C° 0 mm 3 m/S 686 mmHg 36%
    14:00 +20°C° 0 mm 3 m/S 686 mmHg 36%
    15:00 +20°C° 0 mm 3 m/S 685 mmHg 36%
    16:00 +18°C° 0 mm 2 m/S 686 mmHg 43%
    17:00 +17°C° 0 mm 2 m/S 686 mmHg 49%
    18:00 +15°C° 0 mm 1 m/S 686 mmHg 56%
    19:00 +15°C° 0 mm 1 m/S 686 mmHg 56%
    20:00 +14°C° 0 mm 1 m/S 686 mmHg 55%
    21:00 +13°C° 0 mm 0 m/S 686 mmHg 55%
    22:00 +14°C° 0 mm 1 m/S 686 mmHg 53%
    23:00 +14°C° 0 mm 1 m/S 686 mmHg 51%

    25 Oktober, Mittwoch

    Zeit Temperatur Niederschläge Wind Luftdruck Luftfeuchtigkeit
    00:00 +14°C° 0 mm 1 m/S 687 mmHg 49%
    01:00 +14°C° 0 mm 1 m/S 687 mmHg 49%
    02:00 +13°C° 0 mm 1 m/S 687 mmHg 49%
    03:00 +13°C° 0 mm 1 m/S 687 mmHg 48%
    04:00 +13°C° 0 mm 1 m/S 687 mmHg 49%
    05:00 +13°C° 0 mm 1 m/S 687 mmHg 49%
    06:00 +13°C° 0 mm 1 m/S 687 mmHg 49%
    07:00 +15°C° 0 mm 1 m/S 688 mmHg 45%
    08:00 +18°C° 0 mm 1 m/S 689 mmHg 41%
    09:00 +20°C° 0 mm 1 m/S 689 mmHg 37%
    10:00 +20°C° 0 mm 2 m/S 689 mmHg 35%
    11:00 +21°C° 0 mm 2 m/S 689 mmHg 33%
    12:00 +23°C° 0 mm 2 m/S 689 mmHg 31%
    13:00 +23°C° 0 mm 2 m/S 688 mmHg 33%
    14:00 +23°C° 0 mm 2 m/S 688 mmHg 34%
    15:00 +22°C° 0 mm 3 m/S 688 mmHg 36%
    16:00 +20°C° 0 mm 2 m/S 688 mmHg 44%
    17:00 +19°C° 0 mm 1 m/S 688 mmHg 53%
    18:00 +18°C° 0 mm 1 m/S 687 mmHg 61%
    19:00 +16°C° 0 mm 1 m/S 688 mmHg 63%
    20:00 +16°C° 0 mm 1 m/S 688 mmHg 64%
    21:00 +15°C° 0 mm 1 m/S 688 mmHg 66%
    22:00 +15°C° 0 mm 1 m/S 688 mmHg 65%
    23:00 +15°C° 0 mm 1 m/S 688 mmHg 65%

    26 Oktober, Donnerstag

    Zeit Temperatur Niederschläge Wind Luftdruck Luftfeuchtigkeit
    00:00 +15°C° 0 mm 1 m/S 688 mmHg 65%
    01:00 +15°C° 0 mm 1 m/S 688 mmHg 64%
    02:00 +14°C° 0 mm 1 m/S 688 mmHg 63%
    03:00 +14°C° 0 mm 1 m/S 688 mmHg 62%
    04:00 +14°C° 0 mm 1 m/S 688 mmHg 61%
    05:00 +14°C° 0 mm 1 m/S 688 mmHg 61%
    06:00 +14°C° 0 mm 1 m/S 688 mmHg 60%
    07:00 +16°C° 0 mm 1 m/S 688 mmHg 55%
    08:00 +19°C° 0 mm 1 m/S 689 mmHg 50%
    09:00 +21°C° 0 mm 1 m/S 689 mmHg 45%
    10:00 +21°C° 0 mm 2 m/S 689 mmHg 42%
    11:00 +23°C° 0 mm 2 m/S 689 mmHg 39%
    12:00 +24°C° 0 mm 3 m/S 688 mmHg 37%
    13:00 +24°C° 0 mm 3 m/S 688 mmHg 38%
    14:00 +24°C° 0 mm 3 m/S 687 mmHg 39%
    15:00 +24°C° 0 mm 3 m/S 687 mmHg 40%
    16:00 +21°C° 0 mm 2 m/S 686 mmHg 47%
    17:00 +19°C° 0 mm 2 m/S 686 mmHg 54%
    18:00 +19°C° 0 mm 1 m/S 686 mmHg 61%
    19:00 +18°C° 0 mm 1 m/S 686 mmHg 60%
    20:00 +18°C° 0 mm 1 m/S 686 mmHg 60%
    21:00 +18°C° 0 mm 1 m/S 686 mmHg 59%
    22:00 +18°C° 0 mm 1 m/S 686 mmHg 57%
    23:00 +18°C° 0 mm 1 m/S 686 mmHg 55%
    Mehr zeigen